Regional Weather Roundup
Issued by NWS

Home | Current Version | Previous Version | Graphics & Text | Print | Product List | Glossary Off
Versions: 1 2 3 4 5 6 7 8 9 10 11 12 13 14 15 16 17 18 19 20 21 22 23 24 25 26 27 28 29 30 31 32 33 34 35 36 37 38 39 40 41 42 43 44 45 46 47 48 49 50

000
ASUS43 KTOP 230959
RWRKS

WEATHER ROUNDUP FOR KANSAS
NATIONAL WEATHER SERVICE GOODLAND KS
500 AM CDT SAT AUG 23 2014

NOTE:  "FAIR" INDICATES FEW OR NO CLOUDS BELOW 12,000 FEET WITH NO
SIGNIFICANT WEATHER AND/OR OBSTRUCTIONS TO VISIBILITY.

KSZ001>006-013>018-027>032-041>047-231100-
NORTHWEST KANSAS

CITY           SKY/WX    TMP DP  RH WIND       PRES   REMARKS
GOODLAND       CLOUDY    65  64  97 W7        29.94F
HAYS           PTCLDY    70  63  78 SE3       29.86S
HILL CITY      MOCLDY    70  67  90 E5        29.86F
RUSSELL        CLEAR     69  63  81 S9        29.84F
$$

KSZ061>065-074>080-084>089-231100-
SOUTHWEST KANSAS

CITY           SKY/WX    TMP DP  RH WIND       PRES   REMARKS
DODGE CITY     CLEAR     67  62  84 S8        29.90F
ELKHART          N/A     71  60  68 S10         N/A
GARDEN CITY    MOCLDY    68  64  87 SE5       29.90S
GREAT BEND     CLEAR     72  57  60 S5        29.87S
LIBERAL        PTCLDY    66  59  77 S7        29.95S
$$

KSZ066>073-081>083-090>101-231100-
SOUTHEAST KANSAS

CITY           SKY/WX    TMP DP  RH WIND       PRES   REMARKS
CHANUTE        CLEAR     76  69  79 S9        29.93S
COFFEYVILLE    CLEAR     78  70  76 S10       29.93S
HUTCHINSON     CLEAR     75  61  61 S8        29.88F
NEWTON         CLOUDY    79  57  47 S14       29.92F
PARSONS        CLEAR     76  69  79 S3        29.94S
WICHITA INTL   PTCLDY    74  62  66 S9        29.89S
WICHITA JABRA  CLEAR     75  62  64 S10       29.90S
WINFIELD       CLEAR     77  62  59 S13       29.92S
$$

KSZ007>012-019>026-033>040-048>060-102>105-231100-
NORTHEAST KANSAS

CITY           SKY/WX    TMP DP  RH WIND       PRES   REMARKS
CONCORDIA      PTCLDY    72  72 100 NE7       29.85F FOG
EMPORIA        CLEAR     74  66  76 S12       29.89S
LAWRENCE       CLOUDY    81  70  69 S7        29.88F
MANHATTAN      CLEAR     80  65  59 SW12      29.83F
OLATHE IND     PTCLDY    75  71  87 S9        29.91S
OLATHE EXE     PTCLDY    76  70  82 S7        29.90S
SALINA         CLEAR     79  62  56 S14       29.84F
TOPEKA BILLARD CLEAR     81  69  67 S9        29.86F
TOPEKA FORBES  CLEAR     77  67  71 S8        29.87F
$$



USA.gov is the U.S. government's official web portal to all federal, state and local government web resources and services.